Wind_Speed
35 38 38 37 39 37 37 38 37 36 35 34 33 34 34 31 29 30 30 29 29 27 30 30 28 27 24 21 19 18 20 19 17 19 18 21 29 20 12 18 12 9 14 11 9 5 1 0 1 1 2 1 2 1 1 2 2 2 3 3 2 3 3 4 5 5 3 2 4 4 4 6 3 2 1 2 4 3 3 3 3 3 5 3 5 1 16 28
36 37 38 38 40 40 38 38 38 38 36 35 34 33 34 34 30 29 29 29 29 27 29 30 29 28 25 22 18 18 19 18 15 16 24 26 26 23 14 16 15 11 14 13 11 8 3 0 1 3 3 1 2 2 1 1 2 2 3 2 4 4 4 5 6 5 3 3 5 4 4 6 5 4 2 1 2 0 3 1 5 3 5 5 2 9 22 27
37 37 37 38 40 41 39 37 38 39 37 36 34 33 34 34 32 30 29 30 30 28 28 29 30 28 26 23 17 18 17 12 9 13 28 28 21 26 21 17 16 13 13 11 10 9 5 3 4 4 4 1 1 2 1 1 1 2 4 2 5 4 2 4 6 6 5 4 5 4 4 4 4 4 2 3 4 2 4 4 1 2 5 2 3 13 21 24
38 37 36 38 39 42 41 38 39 39 38 37 35 35 34 34 33 31 30 30 30 29 28 29 30 28 27 24 19 20 14 4 7 16 32 32 23 25 25 20 17 14 13 9 7 7 5 5 4 3 3 1 3 3 1 2 2 2 3 4 5 3 2 5 5 6 5 5 4 4 5 3 3 3 2 5 5 3 6 7 7 8 9 7 5 11 18 20
38 39 37 38 38 40 42 40 39 39 39 38 36 35 34 34 32 31 30 30 30 29 28 30 30 28 27 24 23 21 13 2 7 19 34 34 29 27 25 24 20 16 14 8 5 7 7 6 5 4 3 1 2 2 3 4 2 2 2 4 4 4 3 6 3 4 4 5 4 4 5 4 3 2 4 8 7 5 7 9 11 10 11 12 11 13 15 16
37 40 39 38 37 37 40 40 38 39 39 38 36 34 34 34 32 31 31 30 31 30 28 29 30 29 27 25 26 23 13 4 4 15 30 33 33 31 27 25 22 19 16 10 6 8 7 5 4 3 2 1 2 3 4 4 2 2 3 2 4 4 4 4 1 4 4 6 6 6 5 4 5 1 4 9 8 8 6 8 10 9 13 17 16 15 13 13
37 39 39 38 36 35 37 40 38 38 38 38 37 35 34 34 33 33 32 32 31 30 29 29 30 30 27 27 26 19 10 7 3 9 21 29 32 32 30 26 24 22 17 13 9 7 6 6 4 4 4 1 3 5 5 3 1 3 4 2 5 5 5 4 0 3 5 6 5 3 4 6 7 4 3 6 10 9 5 3 5 9 13 16 14 13 15 16
38 39 39 37 37 36 36 39 40 38 37 37 37 36 35 34 34 34 33 33 32 32 30 29 31 31 31 29 19 8 7 8 5 4 11 26 31 30 32 27 26 24 18 17 14 10 7 7 7 4 3 3 4 5 3 2 1 4 6 3 2 3 6 5 1 1 3 4 1 3 4 6 8 4 3 7 10 9 5 3 3 7 10 11 12 13 14 15
38 38 39 38 38 38 37 39 39 39 38 37 37 37 36 35 35 34 33 33 32 33 31 30 31 32 34 24 10 5 12 16 13 3 3 20 31 33 34 29 28 26 19 18 17 14 9 6 6 5 5 4 4 5 3 4 4 6 8 3 2 4 5 3 3 5 4 3 2 4 6 6 3 1 2 7 9 6 2 3 5 7 8 9 10 12 13 13
38 38 39 39 39 38 38 39 39 38 38 37 37 37 37 35 34 33 32 32 33 34 31 31 32 34 33 19 8 8 13 23 22 7 1 12 28 33 35 33 32 29 21 18 18 15 9 7 8 5 4 3 4 4 3 5 4 5 7 5 5 5 4 1 4 6 2 2 4 7 8 6 3 1 3 6 7 4 5 4 4 7 9 11 9 10 14 14
39 39 40 41 40 38 37 39 39 38 38 37 37 38 37 35 34 33 32 31 33 34 31 31 32 34 29 15 11 8 7 22 27 17 4 7 25 34 36 37 35 33 25 17 19 20 15 14 12 6 1 3 4 2 2 5 3 3 6 5 7 6 5 1 3 4 2 2 5 7 5 5 3 2 5 6 4 6 7 5 5 7 8 10 10 9 11 14
39 40 42 41 41 39 38 40 40 40 39 38 37 38 37 35 34 33 32 31 31 33 33 32 32 32 22 9 11 9 7 16 25 24 13 7 23 34 36 37 36 36 30 19 19 23 21 18 15 7 4 3 3 1 3 5 2 1 4 3 7 6 5 4 3 2 4 3 4 6 2 6 7 7 7 6 3 5 6 6 6 8 9 8 9 8 9 14
39 40 42 41 42 41 39 40 40 41 40 38 37 37 37 35 33 32 32 31 30 31 32 32 33 30 16 5 9 12 10 10 16 21 15 12 21 27 31 32 32 33 31 25 23 25 22 19 17 9 3 4 3 2 0 1 2 1 3 3 4 3 5 6 3 3 5 4 4 5 2 8 12 10 8 8 4 4 4 6 7 7 8 7 8 8 8 13
40 41 42 42 43 42 40 40 41 40 38 36 35 35 36 34 34 33 31 30 29 28 29 30 33 28 14 4 5 14 15 7 12 16 14 17 19 19 23 26 26 27 25 22 22 22 20 18 15 5 0 3 1 2 3 4 1 2 2 1 3 3 5 6 3 6 5 3 3 5 5 9 9 8 8 8 6 6 7 8 8 7 8 7 7 8 9 11
40 42 43 43 44 44 41 40 41 40 36 35 35 35 34 33 33 33 31 31 29 27 26 26 27 19 8 4 2 14 19 9 12 16 15 20 21 17 19 23 23 22 21 17 16 18 17 15 11 4 1 1 2 3 2 2 2 1 3 2 2 4 5 6 2 8 8 2 2 5 5 8 7 8 9 5 5 8 10 10 8 8 8 8 7 8 8 11
41 43 44 44 45 44 44 42 40 40 37 34 35 34 33 31 32 32 31 29 25 26 25 19 16 8 3 4 4 12 17 11 14 15 16 23 23 19 21 23 18 18 17 13 15 16 15 11 4 2 3 2 2 2 2 1 3 3 5 4 2 4 3 4 3 6 7 2 2 5 5 5 5 7 7 2 4 7 8 10 9 8 8 8 7 7 8 9
43 43 44 45 45 45 44 42 40 41 39 35 33 32 30 29 30 30 28 27 23 23 21 11 8 3 1 4 6 8 12 13 17 17 18 22 21 22 23 16 11 15 13 10 15 13 7 5 1 0 2 2 4 4 3 7 7 4 3 4 3 3 4 3 3 5 4 2 4 6 6 9 7 5 6 4 3 6 7 9 9 8 8 7 7 7 8 9
44 44 45 45 45 45 44 42 41 42 40 35 32 30 28 27 28 28 25 25 22 16 11 5 6 3 2 6 5 7 12 16 20 20 20 20 19 23 21 12 9 14 12 5 8 7 1 1 1 1 2 3 5 7 9 8 6 6 5 5 2 1 4 5 3 4 7 4 5 6 7 14 13 7 8 6 3 6 7 8 8 8 7 7 7 8 9 10
44 43 46 46 46 46 45 43 40 41 40 35 34 32 26 21 21 22 21 22 17 8 5 6 8 4 1 6 5 9 18 20 20 20 20 19 20 21 15 11 11 11 9 4 5 5 3 2 2 4 6 8 10 11 10 4 6 9 6 5 4 3 4 5 4 4 8 7 7 9 8 14 16 10 9 10 5 6 7 7 7 7 7 7 7 8 10 10
45 43 45 46 47 47 46 45 40 40 40 36 36 28 17 13 10 8 9 12 9 2 2 8 12 4 4 3 6 14 20 17 14 16 22 23 23 19 9 7 8 4 7 9 7 6 6 6 7 10 13 14 14 13 9 4 5 7 6 5 5 6 5 4 4 5 4 7 7 9 10 13 16 12 9 10 8 7 9 9 8 9 8 8 9 10 10 11
45 44 44 45 47 48 47 47 42 41 42 42 38 19 9 13 9 7 8 5 4 2 3 7 12 4 3 4 11 18 13 5 3 9 21 24 23 18 5 6 10 5 8 9 5 4 6 9 12 17 17 14 13 12 9 5 5 6 6 6 5 6 5 4 5 3 0 5 5 5 8 11 15 14 10 9 8 9 12 12 11 12 11 9 10 11 10 9
44 44 45 46 48 48 48 47 44 43 43 42 33 12 9 14 12 18 17 5 3 2 5 6 11 3 3 5 14 18 11 4 3 6 18 20 15 12 6 7 12 10 9 7 6 5 6 10 18 20 14 10 9 10 10 7 4 4 4 5 4 4 1 3 4 3 1 3 4 5 6 9 12 15 12 10 9 10 13 14 12 12 12 12 11 11 11 10
44 45 47 47 47 48 48 47 46 45 41 35 26 13 12 14 17 25 17 4 4 2 5 4 9 5 3 5 11 13 9 10 8 7 19 20 10 8 8 9 11 10 9 9 10 9 8 13 18 13 9 10 9 8 10 6 4 4 4 4 4 3 3 3 4 4 1 3 3 4 6 8 9 12 13 11 10 10 13 14 12 11 12 14 13 11 11 12
45 45 46 49 48 46 47 48 46 44 41 36 28 21 18 18 28 31 13 4 4 2 1 1 3 5 4 5 9 9 6 7 8 9 19 19 9 7 9 11 11 9 8 12 14 12 11 9 7 9 11 15 11 7 10 7 5 5 5 6 5 4 6 4 2 3 3 2 3 3 8 11 9 11 16 12 9 10 13 14 12 11 12 13 12 12 12 12
47 46 46 50 48 47 49 45 39 38 38 33 25 23 23 25 35 34 12 3 3 0 1 0 1 4 5 4 6 5 2 2 4 10 17 18 13 10 8 8 9 9 12 15 13 12 13 6 10 13 13 12 9 7 11 10 7 6 7 9 7 7 7 4 3 0 3 5 4 3 6 9 5 11 16 11 7 9 11 13 15 14 13 12 12 14 13 13
49 48 47 49 48 51 44 27 29 37 29 21 22 25 27 29 37 32 10 4 3 1 2 4 1 7 10 5 4 5 2 3 1 11 19 18 13 8 7 6 3 10 15 13 7 5 7 6 11 14 11 10 10 9 11 11 8 7 6 7 7 8 8 6 6 3 3 6 4 2 4 8 4 6 10 9 8 10 10 12 14 13 13 12 12 14 13 13
49 49 49 48 49 51 31 13 28 35 18 17 29 32 30 34 36 25 6 2 3 3 6 4 2 9 12 8 10 7 5 4 5 9 17 18 13 2 5 9 4 7 10 6 5 4 7 10 10 13 11 10 11 10 12 13 9 6 6 11 8 8 8 7 7 5 4 3 3 1 3 7 11 6 7 8 9 10 10 11 12 12 13 13 13 14 13 14
46 49 50 48 51 51 29 19 30 25 18 30 37 34 34 38 29 13 4 3 4 5 6 4 3 7 7 8 13 6 3 5 6 7 13 17 14 2 4 12 9 9 11 9 9 7 10 15 15 15 12 9 13 13 12 14 10 6 8 11 8 7 6 6 6 4 1 2 4 4 3 4 12 6 6 8 11 14 13 12 13 13 13 14 14 15 15 15
44 47 50 50 52 47 31 27 30 23 30 42 38 33 35 31 16 3 2 4 2 3 4 6 6 5 4 6 11 5 1 2 2 5 9 11 9 2 3 11 11 11 12 12 12 6 5 10 13 13 10 9 11 8 11 14 9 5 8 9 6 6 5 4 5 4 2 2 8 8 5 4 13 8 5 5 9 13 12 10 11 13 14 14 13 14 15 13
45 45 48 52 47 38 28 27 30 30 36 44 39 33 29 19 8 3 6 4 2 2 4 6 7 8 9 8 7 6 3 2 2 6 6 3 3 2 0 2 6 8 7 10 11 3 2 2 7 8 7 7 6 7 10 12 8 6 7 7 6 5 4 3 3 3 2 6 12 12 10 8 11 8 6 7 7 8 8 6 8 12 14 14 12 12 13 11
45 44 47 50 43 37 27 17 25 36 41 45 40 28 17 8 3 6 7 3 3 3 5 7 8 10 13 10 7 7 5 3 5 7 5 2 3 4 2 2 3 5 5 6 8 5 2 2 5 5 5 8 9 6 5 8 11 8 5 5 4 2 1 1 1 1 5 9 12 12 12 11 11 8 5 5 5 4 8 8 9 13 15 14 12 11 10 9
44 43 46 46 40 38 29 21 33 44 47 47 35 17 8 4 3 4 5 5 4 4 6 9 10 11 13 13 10 10 8 4 5 8 9 8 6 6 8 8 7 6 6 7 9 7 4 3 4 3 6 10 10 6 3 6 9 6 6 7 6 3 2 4 4 4 7 10 7 5 9 10 13 14 8 8 7 5 7 8 10 13 13 13 11 9 8 6
43 43 44 42 38 35 31 32 43 47 48 44 24 7 5 6 6 5 5 4 3 3 7 10 11 14 17 15 11 11 9 4 6 8 9 10 10 8 8 9 8 4 5 9 10 8 5 5 5 4 5 9 11 9 6 7 9 9 10 10 9 6 5 7 8 5 7 10 4 4 5 5 10 13 13 15 15 11 10 9 10 11 11 12 9 7 7 6
43 43 41 38 34 29 31 40 46 49 47 33 13 6 9 7 4 6 5 4 1 4 9 11 12 14 15 13 11 11 9 5 8 9 8 9 8 9 7 6 7 1 3 6 6 8 10 7 8 9 6 11 15 13 13 11 11 13 11 9 9 8 6 8 8 7 8 7 2 4 4 5 7 6 5 9 11 10 10 9 10 9 9 10 8 7 7 7
43 42 36 32 29 26 35 45 48 51 40 18 7 8 10 7 3 5 6 3 2 4 8 11 13 11 10 9 8 11 8 5 9 9 8 9 7 9 9 7 8 4 4 5 2 5 9 6 7 9 7 13 16 12 13 11 8 7 5 6 9 8 6 3 3 6 6 3 2 4 4 5 6 8 8 7 5 6 7 7 8 10 10 9 8 8 8 8
39 35 30 28 28 31 42 47 49 50 31 10 8 7 5 4 2 5 7 4 4 8 11 11 10 8 7 6 6 11 6 2 9 8 6 8 8 9 9 6 9 7 4 6 2 2 6 3 3 7 6 13 16 12 13 12 7 5 5 7 7 5 5 2 2 1 3 3 5 5 6 6 7 13 15 14 10 7 7 7 9 13 14 11 9 10 10 8
31 25 19 22 30 36 43 45 45 40 22 8 9 6 2 2 1 4 7 5 6 11 13 9 7 7 8 6 6 12 8 3 8 7 4 7 7 8 9 5 10 12 7 4 1 1 5 1 1 8 9 10 10 9 10 10 6 5 9 9 3 1 1 2 2 1 3 5 5 6 12 10 7 10 8 9 15 12 7 8 10 13 14 13 12 13 11 9
24 18 11 16 32 38 40 43 37 24 11 9 9 4 2 1 2 4 6 7 8 10 10 5 5 7 8 8 7 11 11 8 9 8 6 6 5 9 12 6 9 17 13 7 1 1 3 1 2 7 10 6 4 5 5 5 2 2 5 8 5 1 4 4 4 3 4 7 5 7 13 10 9 11 6 5 13 14 11 10 11 12 12 12 13 13 10 8
19 12 3 11 33 39 40 41 27 11 6 9 9 4 2 2 1 2 5 9 9 8 8 4 3 6 8 9 9 10 12 11 10 8 7 7 4 8 15 9 7 14 16 12 5 2 2 3 2 3 4 4 5 5 6 6 3 0 2 3 4 2 5 5 6 5 6 7 7 8 10 8 10 15 13 10 10 11 13 13 12 14 14 12 11 10 8 8
11 7 2 10 34 41 40 33 15 6 7 6 6 5 3 3 1 2 2 6 6 4 5 6 5 7 9 9 8 8 9 10 10 8 6 7 5 6 11 10 7 9 14 14 9 3 2 3 3 2 2 3 5 6 11 12 9 6 5 6 6 4 2 2 4 5 5 5 6 7 9 9 8 8 12 13 10 11 13 13 13 15 16 15 12 9 8 8
4 5 2 10 36 41 32 18 5 5 6 3 4 4 4 4 3 1 2 4 4 2 2 6 7 7 9 9 8 7 7 7 8 7 5 7 7 5 6 10 9 8 10 10 8 6 4 4 5 2 2 5 5 4 9 12 12 10 8 8 9 9 6 4 6 7 5 5 5 5 10 12 7 3 8 12 11 12 14 14 14 15 17 17 12 9 8 7
3 6 2 11 39 39 19 6 2 3 3 4 5 5 5 5 3 2 1 4 4 3 3 3 4 5 7 7 8 8 7 7 8 7 5 8 9 6 7 10 11 11 10 8 9 7 3 3 5 4 3 5 3 1 1 4 8 8 6 6 7 7 7 7 9 7 7 8 6 3 7 11 7 4 7 9 11 13 14 15 14 12 14 13 9 8 9 9
2 4 4 9 34 34 12 2 3 3 2 5 6 5 5 5 3 2 2 2 3 2 3 2 2 3 3 3 7 10 9 6 8 9 6 8 10 7 7 9 10 12 10 6 7 5 2 2 5 3 1 2 1 2 3 4 4 3 5 6 7 7 8 9 7 3 5 9 8 5 8 13 9 5 5 5 6 10 11 12 13 11 9 9 8 8 9 9
2 3 5 5 16 22 10 3 6 5 3 5 7 5 3 3 4 4 3 4 3 3 4 3 3 3 2 3 6 11 12 7 7 10 7 7 8 5 6 10 10 11 9 7 8 7 3 4 6 5 3 1 1 2 1 1 2 4 6 10 12 11 11 9 5 3 4 8 12 9 9 13 8 3 3 5 4 6 8 7 9 9 8 8 7 7 8 7
4 2 2 6 4 7 5 1 4 7 8 10 10 9 5 3 1 3 6 5 2 4 5 3 2 4 3 3 4 6 11 6 3 8 7 4 4 2 4 11 12 10 9 9 10 8 5 5 8 9 8 7 7 7 7 6 5 3 3 10 15 15 15 10 5 6 8 9 12 10 10 15 10 2 2 5 4 5 9 7 5 7 8 8 6 7 8 6
3 2 1 2 5 3 1 1 2 5 9 12 9 8 10 6 1 1 4 4 1 3 5 2 3 5 3 4 5 4 9 5 3 5 8 7 4 2 3 10 12 12 11 10 11 8 3 4 10 12 12 12 10 8 6 7 8 7 7 11 15 16 17 13 7 8 9 9 10 11 12 17 19 12 5 5 5 6 8 7 6 7 8 8 8 7 6 5
2 2 2 2 1 1 2 1 2 4 7 11 7 6 11 10 4 1 1 1 3 4 4 2 3 5 5 8 6 3 6 5 2 3 7 8 4 2 2 3 8 14 13 10 9 7 3 5 12 14 15 16 9 5 7 11 13 15 16 16 16 15 16 15 12 11 9 8 11 15 14 16 25 20 6 2 7 7 7 7 7 7 8 7 6 5 6 6
2 1 0 1 1 3 2 4 7 5 5 6 4 6 11 11 9 5 1 1 3 3 3 2 3 6 10 11 8 5 5 4 2 2 3 4 3 0 1 1 4 9 9 7 6 5 4 7 13 14 17 19 10 5 7 9 11 14 17 18 17 16 17 18 18 15 11 9 10 11 10 14 24 20 6 5 8 7 8 9 6 6 6 5 5 6 8 8
2 3 1 2 2 2 3 7 11 10 7 6 4 5 11 13 10 6 2 3 4 2 2 5 4 5 8 9 7 6 8 7 5 5 3 4 4 3 3 2 2 2 5 6 5 3 3 6 10 11 14 18 14 7 6 6 6 8 12 14 14 15 16 16 16 15 14 12 10 12 13 15 22 16 5 6 8 6 7 6 5 7 6 4 5 7 8 8
2 2 0 2 3 3 4 6 10 10 6 5 5 3 8 12 10 4 2 4 7 5 2 7 8 7 8 7 5 7 10 9 8 9 8 6 5 3 3 4 2 2 3 5 4 3 4 5 6 6 7 14 14 9 7 7 6 7 9 11 11 11 12 12 12 11 12 12 12 15 16 17 22 15 4 4 6 5 7 7 7 8 5 4 7 8 9 10
1 1 1 4 4 3 4 5 6 7 5 3 4 4 6 10 9 5 2 2 5 6 5 9 10 6 5 5 6 7 9 7 7 10 10 9 6 4 3 3 3 4 4 3 2 4 5 3 3 5 5 9 10 11 11 10 9 10 11 10 11 11 10 11 12 12 12 11 12 13 12 15 20 12 6 8 9 6 9 11 9 8 6 8 10 10 11 10
3 2 3 4 3 2 2 3 3 5 4 1 2 4 5 6 7 7 5 2 2 2 4 10 12 6 3 4 6 8 10 9 7 7 8 6 5 5 4 4 5 5 5 4 1 2 5 4 4 4 5 8 9 11 11 9 9 11 11 12 14 14 15 15 14 14 15 13 10 11 12 15 17 11 9 17 18 14 13 12 9 9 10 11 12 12 11 10
Wind_Direction
229 226 222 213 212 212 209 208 208 211 211 209 209 208 212 215 213 207 201 200 204 204 201 200 196 194 191 190 192 189 189 191 187 181 191 214 210 210 211 196 193 189 192 199 202 205 214 230 214 15 59 98 352 304 346 355 62 73 102 121 194 196 198 183 183 190 162 215 216 217 173 135 169 221 209 36 51 60 74 31 338 327 335 266 263 293 161 168
231 226 223 217 212 212 210 208 207 210 211 209 206 205 207 211 214 212 202 198 201 203 202 199 196 193 190 190 191 186 186 193 191 190 208 216 211 209 202 186 191 189 188 195 203 200 169 159 185 69 49 56 336 344 339 321 93 101 117 148 220 201 203 184 175 188 188 213 194 190 161 152 179 171 132 152 217 49 112 334 341 345 331 325 260 152 158 166
231 226 224 220 214 211 210 208 207 208 210 209 207 205 206 208 210 210 204 198 198 201 201 200 197 192 190 188 183 181 178 189 202 212 216 212 208 211 206 190 189 189 187 194 204 206 195 186 172 114 52 341 297 358 344 301 176 157 124 177 235 213 243 206 180 204 212 189 171 179 158 168 194 157 145 175 187 203 179 210 254 243 254 262 171 155 160 165
231 227 224 222 217 211 209 209 207 206 208 209 207 205 205 205 205 206 204 200 197 199 200 200 197 192 190 182 176 177 166 184 226 219 217 210 206 210 206 198 194 192 189 187 197 206 194 158 146 105 83 255 318 21 209 251 198 172 141 185 226 180 250 239 198 217 210 167 161 154 135 176 208 152 164 153 151 254 241 220 198 200 202 190 185 168 166 168
231 228 224 224 221 215 210 208 207 205 206 208 207 205 204 203 202 203 201 199 196 197 200 198 195 193 188 178 176 169 149 193 220 212 219 213 209 211 206 202 199 198 193 184 173 166 162 141 108 65 79 185 329 33 241 249 139 169 202 179 199 156 209 258 219 208 180 137 127 130 150 178 159 136 171 159 169 232 231 219 207 195 178 174 177 174 173 176
228 227 224 224 222 218 212 208 206 205 205 206 207 205 203 201 200 200 199 196 195 196 198 197 193 191 186 175 174 168 160 214 169 195 218 214 212 214 210 204 200 203 199 192 172 149 140 116 108 103 97 164 200 203 247 263 127 220 256 174 201 183 198 260 221 189 153 127 149 167 182 148 122 210 192 174 204 230 230 219 207 194 177 173 168 169 177 185
226 224 223 222 220 218 214 210 208 205 204 205 206 205 203 201 198 198 197 195 195 194 196 197 192 188 183 172 172 175 190 231 140 170 208 209 211 213 209 203 198 203 201 193 177 152 133 118 148 153 127 174 209 216 248 262 168 229 258 248 221 205 207 232 211 180 155 156 188 165 139 148 168 203 164 191 231 243 266 279 204 186 169 165 163 174 186 190
225 224 222 219 217 216 213 211 209 205 205 204 204 205 203 201 198 196 195 195 194 193 194 196 191 186 181 170 165 182 213 213 176 139 193 201 207 209 205 199 199 202 198 196 183 161 144 138 168 154 147 216 196 201 223 206 234 229 231 248 227 222 229 231 259 229 192 196 199 114 161 196 193 172 150 216 241 249 255 29 106 152 151 164 176 186 193 194
223 222 221 219 216 214 211 210 208 203 203 204 202 202 203 200 196 195 194 194 194 193 192 191 190 188 183 172 153 197 210 198 189 150 163 199 204 204 200 195 197 199 196 200 190 168 155 160 187 161 168 202 179 193 197 185 228 227 215 218 205 241 252 229 222 228 223 221 131 152 227 254 232 183 244 236 236 239 201 95 110 141 157 182 190 192 195 198
220 219 218 218 215 211 210 208 207 203 200 202 201 200 202 198 194 194 193 193 193 191 189 189 190 188 182 168 159 211 207 198 199 195 68 199 197 196 195 193 194 194 191 194 189 175 163 176 181 142 144 171 172 191 180 187 221 221 207 222 224 248 302 87 229 241 224 240 179 184 232 267 309 272 247 250 229 179 124 120 144 159 180 195 199 201 201 203
219 217 216 217 213 210 210 208 207 206 201 200 200 199 199 196 194 195 195 195 194 191 186 187 192 187 178 166 183 210 190 196 207 215 237 194 190 192 193 193 191 189 186 185 190 187 178 177 159 115 121 177 169 201 222 203 224 233 199 233 250 264 314 33 244 260 164 237 190 173 239 284 324 249 219 240 219 163 156 160 164 183 201 204 205 207 204 211
218 217 215 215 212 208 210 209 206 206 203 199 199 198 196 196 195 195 195 195 198 197 186 186 193 184 171 176 201 195 170 195 210 219 233 202 190 196 195 193 192 189 184 178 190 193 188 180 155 143 213 165 143 218 253 209 186 230 162 211 261 273 285 237 221 223 164 208 174 145 288 277 240 229 222 232 195 142 168 183 185 201 212 211 211 213 210 217
215 215 214 212 209 206 208 207 204 206 203 198 197 196 195 195 194 193 194 193 197 200 188 186 193 182 166 197 211 194 187 199 208 216 221 195 189 193 193 194 192 192 189 182 187 190 191 185 166 167 191 128 161 220 317 142 150 177 150 186 255 286 277 236 184 142 163 200 173 153 249 250 239 240 234 238 220 151 185 209 207 211 217 217 216 218 220 221
211 213 212 211 207 203 204 204 202 203 201 198 195 193 193 192 191 191 191 191 193 196 193 190 187 178 176 213 204 198 202 204 202 202 194 181 175 174 185 191 190 191 193 189 185 183 186 183 167 153 148 134 193 302 13 10 21 171 178 204 206 217 266 261 185 146 170 217 162 158 231 248 252 257 247 241 219 203 225 231 218 218 222 220 218 221 227 226
210 211 209 209 206 202 202 201 202 202 199 198 196 192 190 189 189 187 188 190 190 192 194 192 183 166 173 242 215 198 202 199 194 194 186 178 165 159 177 182 183 187 189 191 186 177 170 163 151 139 224 136 50 350 350 338 344 167 201 218 187 206 266 295 220 166 180 223 137 162 226 262 269 260 252 237 196 203 226 237 230 226 228 225 222 222 229 233
209 209 207 207 206 204 201 201 203 201 198 198 196 192 188 186 185 183 184 186 186 190 188 190 194 165 140 208 175 185 195 191 190 189 183 182 174 166 168 168 170 176 177 179 175 168 153 142 133 152 145 109 145 126 80 248 254 222 213 208 176 188 235 294 267 202 189 133 178 206 235 268 274 265 270 283 177 191 218 245 248 238 236 232 229 226 230 238
207 207 205 204 203 200 198 200 201 198 197 194 191 187 184 184 182 178 179 178 176 183 181 178 196 196 33 173 154 173 184 176 178 176 175 182 179 164 156 150 149 149 141 139 154 154 145 141 81 164 127 128 160 134 160 220 221 214 216 217 216 181 190 226 267 244 204 154 213 221 240 246 251 282 299 323 162 177 212 242 251 246 242 234 229 232 233 235
205 207 204 201 201 197 196 198 198 196 193 189 184 179 178 181 177 173 170 163 155 161 173 163 156 181 250 192 175 170 169 166 168 167 168 176 175 162 153 143 130 129 117 104 147 144 124 153 91 150 180 175 168 175 200 212 194 188 196 203 224 187 192 204 227 223 192 200 229 214 243 251 255 273 282 288 159 171 223 241 255 260 255 246 233 232 232 232
202 206 202 199 199 196 195 194 195 194 186 182 180 171 165 169 167 167 163 152 145 149 174 168 168 182 206 191 192 150 158 164 165 161 157 164 168 157 145 136 131 134 139 150 182 170 148 118 123 181 202 199 196 199 201 183 162 180 181 170 163 177 223 218 237 242 189 197 235 219 231 251 254 256 258 266 231 206 245 254 268 269 263 255 239 235 235 235
201 203 200 198 195 192 191 189 191 188 179 176 172 159 152 155 153 163 158 155 163 160 138 166 181 186 60 147 163 137 151 162 162 163 158 157 156 147 128 121 125 136 166 169 180 173 160 170 193 205 205 203 202 202 196 167 144 153 151 167 177 190 230 228 235 284 199 197 235 224 229 250 257 257 247 256 257 255 262 255 255 255 255 252 242 241 238 237
199 201 200 197 192 189 189 189 189 182 176 173 165 154 163 165 161 165 153 158 176 53 37 165 176 183 55 148 160 143 142 144 128 160 161 156 151 150 154 148 146 173 188 169 142 135 177 190 206 211 206 201 201 199 195 182 144 143 161 184 201 204 231 236 225 304 109 193 256 247 241 254 261 265 253 246 250 251 254 250 248 246 246 248 244 245 241 241
197 198 199 196 191 189 189 189 188 180 176 171 163 164 184 169 163 160 152 144 182 67 28 147 166 181 44 140 164 153 137 136 130 145 160 160 162 168 178 167 165 180 182 155 128 155 191 209 214 209 199 193 194 194 200 196 164 157 155 166 207 208 248 286 269 332 69 183 270 272 257 253 255 264 258 241 234 238 245 245 242 241 244 246 244 244 244 248
196 195 196 195 190 189 189 188 183 179 175 168 166 178 173 165 159 152 140 97 164 134 33 135 174 174 119 145 176 170 153 160 166 167 166 165 173 174 163 168 177 178 172 167 173 177 191 219 218 194 170 186 189 187 193 190 178 184 152 157 206 172 160 261 285 308 269 197 258 281 280 264 251 267 267 243 226 235 246 246 243 238 238 244 245 245 246 246
194 193 195 192 187 186 188 183 178 178 176 169 174 181 162 156 158 149 126 55 153 162 40 168 178 167 157 150 178 185 171 166 169 173 172 167 156 157 167 171 174 177 181 187 190 192 207 219 180 148 177 193 187 177 182 189 209 210 187 188 194 156 175 214 241 293 310 301 325 337 296 276 240 246 261 250 221 229 244 247 248 242 237 244 250 250 246 243
193 192 194 189 184 184 184 179 176 177 173 169 175 178 162 152 156 151 123 50 160 51 303 234 6 187 175 134 155 165 153 193 177 163 174 176 159 150 177 175 170 186 189 191 193 205 219 188 131 168 195 184 173 182 189 192 204 221 217 203 186 159 175 184 155 95 327 300 328 34 287 281 219 217 247 253 230 228 240 242 243 243 240 240 246 249 244 243
191 191 192 188 183 181 180 179 178 170 163 171 174 171 168 157 156 156 122 40 189 185 182 176 164 181 178 164 131 104 152 233 132 150 167 181 173 155 174 168 173 194 185 188 199 210 219 176 157 186 185 161 177 201 198 187 197 229 205 169 166 166 175 170 151 161 229 255 291 114 230 275 270 220 236 250 248 241 241 245 246 246 246 240 239 246 244 243
190 189 189 189 184 179 179 172 168 161 153 181 171 163 169 162 159 164 137 20 226 156 149 168 196 175 172 167 146 136 190 175 96 154 170 175 179 165 171 169 172 191 172 170 208 197 180 177 176 181 171 167 189 205 196 181 195 232 148 138 159 170 177 171 154 185 222 264 307 134 165 272 279 251 207 220 248 253 247 249 252 248 247 246 242 246 245 244
193 189 186 188 184 180 181 162 157 161 170 176 166 157 165 164 160 167 167 184 190 141 146 163 165 160 150 150 157 165 237 150 134 181 176 172 178 143 175 184 181 179 167 168 200 197 175 186 187 179 171 180 201 205 184 173 196 220 147 145 157 145 150 151 142 176 259 358 268 232 118 271 274 256 179 204 234 246 243 237 246 249 245 244 244 245 244 245
193 190 186 185 182 181 182 166 162 173 172 167 162 159 159 155 147 124 183 187 136 117 161 159 145 143 128 146 167 182 349 123 148 162 163 174 179 126 180 193 183 175 175 186 199 190 182 202 189 177 182 195 201 186 160 170 196 198 139 123 107 97 95 104 122 129 75 295 246 228 157 229 271 263 180 206 235 242 244 232 236 246 246 241 240 244 244 244
191 191 189 183 178 175 170 166 171 171 163 159 159 158 150 139 128 152 195 200 95 111 161 162 163 161 154 150 169 183 151 123 123 136 152 172 154 132 258 192 168 169 183 204 210 211 348 219 162 170 197 184 152 134 159 172 157 125 105 90 82 64 58 71 82 105 141 252 247 226 181 192 268 270 176 195 217 216 231 232 233 243 247 245 238 241 243 240
189 190 189 181 174 166 160 162 169 163 159 156 150 146 142 127 143 188 191 171 105 141 150 154 165 159 158 160 164 175 163 148 158 149 151 173 164 159 149 102 135 166 185 200 214 234 326 112 151 180 180 143 126 127 150 147 136 125 101 111 120 67 52 111 60 132 205 243 246 227 189 182 241 253 161 198 224 198 214 215 221 237 245 246 240 241 243 241
188 186 185 181 172 166 166 166 163 159 159 155 144 137 147 146 193 193 165 143 149 183 159 150 162 158 160 170 173 176 173 166 176 168 164 180 196 184 179 181 171 177 193 189 194 205 215 203 189 169 146 145 141 127 110 145 155 146 121 140 161 174 195 196 201 200 215 242 252 201 173 187 237 252 256 266 266 254 237 223 223 234 244 250 247 247 251 252
185 181 180 180 170 167 170 164 159 157 153 149 143 141 168 178 192 163 141 164 183 185 158 153 164 161 160 170 181 182 178 175 176 176 178 182 193 203 206 205 194 187 185 181 183 184 195 224 201 156 147 169 163 150 160 173 172 172 164 170 181 182 197 208 212 212 222 243 270 103 155 209 254 261 259 254 248 236 232 236 238 238 245 255 257 258 264 262
182 176 177 178 170 168 166 159 158 155 148 143 141 160 177 191 172 126 143 198 167 130 151 153 155 158 165 174 179 175 178 191 177 173 183 184 193 205 214 228 218 203 87 161 183 181 192 213 191 173 168 181 183 179 176 172 180 190 184 181 186 183 197 205 205 207 218 244 267 124 169 205 223 245 242 239 248 241 228 235 247 250 252 260 270 273 265 259
176 173 174 169 163 164 161 158 160 156 148 141 150 172 182 184 149 138 158 180 161 135 139 146 147 152 172 178 175 179 186 192 178 182 191 185 196 200 199 216 206 172 118 165 187 179 199 238 198 176 166 175 184 184 171 166 184 202 179 184 203 198 186 189 200 195 197 241 231 193 221 222 234 279 277 250 279 288 257 256 266 267 260 253 266 266 255 255
166 163 166 159 157 162 161 160 160 155 149 147 166 185 189 158 155 170 157 149 165 147 133 144 152 153 171 173 171 183 185 138 166 187 207 194 208 206 193 197 190 188 178 168 151 158 188 256 185 159 162 182 186 180 172 173 173 180 185 199 218 206 166 166 269 153 125 223 224 206 248 263 278 286 269 244 248 269 270 265 254 256 257 251 256 258 250 250
156 147 149 154 160 164 163 162 159 154 150 161 177 186 156 136 188 157 142 135 147 143 139 150 163 157 164 168 177 178 167 129 166 181 201 192 208 207 194 186 177 193 212 177 118 193 163 88 99 167 181 198 191 172 181 193 168 159 195 192 165 19 124 153 241 101 104 232 232 205 233 244 245 266 268 226 225 227 235 249 245 250 257 255 252 251 250 249
149 136 129 153 163 164 161 161 159 151 151 173 177 160 91 160 198 151 137 133 134 144 150 154 158 163 168 169 177 175 168 172 176 178 189 189 203 196 188 187 172 187 202 190 180 299 156 107 294 193 187 181 137 141 193 233 190 117 206 185 142 172 205 177 198 197 190 230 246 220 231 236 224 240 262 217 215 212 213 229 241 248 248 248 250 250 251 253
144 140 105 153 162 162 159 158 155 144 162 179 175 164 133 146 180 195 159 140 134 146 158 161 147 162 176 173 170 170 176 184 175 173 191 189 205 194 181 184 185 183 183 173 175 247 168 183 259 245 198 156 136 164 194 213 211 310 271 194 158 198 209 190 202 212 204 222 247 243 239 237 229 235 239 230 213 200 208 220 231 243 243 239 244 245 242 240
139 147 6 154 161 161 157 156 154 157 172 179 171 160 146 134 134 256 167 132 130 140 162 169 157 159 173 177 172 168 181 191 178 180 196 182 196 212 185 180 181 175 172 170 172 168 141 192 219 329 337 173 170 189 193 194 195 197 202 192 185 198 208 202 218 224 221 222 236 250 251 246 239 231 226 226 213 193 203 214 223 237 245 244 241 236 232 232
119 132 351 164 160 158 155 153 157 171 165 159 152 138 134 141 135 111 33 74 105 94 131 154 156 163 169 172 172 167 174 188 185 187 198 192 200 224 202 185 169 155 162 173 183 177 162 192 196 179 182 194 198 203 201 199 190 191 203 197 193 197 189 196 213 211 221 223 207 228 253 255 248 192 196 210 207 197 200 207 216 228 238 243 243 234 231 234
102 137 331 166 160 156 153 156 146 130 155 164 142 123 136 135 119 141 78 55 86 81 69 107 136 158 165 170 171 166 167 182 193 190 193 207 210 211 205 190 167 154 157 176 194 185 143 159 195 202 201 202 202 88 102 175 170 184 215 209 209 211 195 206 214 199 203 218 214 226 261 265 255 190 196 207 200 200 203 203 212 225 235 244 247 238 236 240
71 131 53 139 160 160 151 145 148 105 137 155 119 102 127 122 110 159 154 103 108 94 83 100 146 157 166 173 160 163 169 178 196 196 193 210 218 218 202 182 158 156 163 175 186 179 82 128 191 216 266 288 310 77 54 58 114 181 219 210 213 217 213 220 226 213 204 212 218 230 254 265 259 194 209 249 222 212 211 204 210 219 232 243 243 237 232 233
80 102 47 66 158 165 161 159 160 146 132 127 115 109 100 98 132 157 160 149 142 129 124 141 177 158 158 161 150 169 177 177 199 203 197 207 221 226 188 176 166 165 177 182 173 177 184 174 186 207 216 218 149 169 191 131 170 208 212 208 209 212 221 233 247 265 245 213 215 223 241 256 262 149 192 272 286 249 238 222 217 222 232 242 243 246 246 245
106 77 25 18 56 152 163 160 156 154 143 136 140 146 135 100 115 152 151 146 133 137 137 156 165 112 116 139 112 162 179 165 174 200 206 220 237 265 184 181 181 179 193 190 168 172 193 183 189 202 206 205 199 204 207 187 186 206 205 210 211 208 213 220 229 235 231 217 215 220 234 248 262 310 246 265 290 265 255 254 252 244 244 249 249 249 255 258
125 86 126 38 15 46 96 27 136 155 151 144 145 156 152 140 46 23 134 141 152 123 112 115 127 93 96 146 118 155 191 176 107 173 202 212 218 281 211 190 191 191 192 180 162 158 171 199 205 208 215 220 215 209 187 151 160 184 194 206 210 209 209 212 220 223 223 225 226 224 232 250 259 257 259 287 270 247 256 260 255 252 250 251 250 254 267 264
107 99 142 129 75 89 66 65 143 155 160 154 150 163 158 149 143 97 59 149 175 135 85 82 150 144 167 166 144 157 190 184 146 168 200 211 217 309 287 191 198 199 192 180 173 163 142 206 212 213 225 230 224 201 178 163 172 189 197 203 207 207 205 210 221 222 216 224 233 229 224 244 257 252 234 280 258 248 262 253 236 241 245 248 262 280 286 272
76 101 171 53 117 150 145 166 162 141 135 143 140 157 157 152 153 158 107 84 160 148 95 110 180 173 170 164 152 148 155 167 219 218 199 205 196 166 25 21 226 209 192 184 190 172 166 213 211 209 225 233 225 193 187 178 176 188 196 200 201 202 202 210 222 224 222 227 242 251 239 244 258 256 212 202 229 225 239 241 237 254 266 289 300 282 269 263
78 98 29 9 58 122 118 142 150 140 129 129 124 150 159 158 159 161 118 113 157 188 132 149 179 173 162 156 138 145 164 172 197 209 189 186 187 165 149 194 257 232 178 184 195 165 163 220 216 205 225 234 227 204 193 189 175 181 194 194 192 197 202 213 223 227 234 244 262 284 286 271 265 262 228 217 226 217 244 270 285 274 280 305 283 263 259 255
91 114 94 72 78 74 89 119 140 141 135 131 130 143 158 157 156 147 69 125 164 189 155 151 163 159 156 151 127 157 182 182 190 199 181 169 188 183 172 194 184 87 157 194 202 178 175 216 210 186 220 240 233 219 215 212 201 199 202 192 182 184 194 211 224 229 237 243 248 261 271 271 267 269 292 270 243 226 256 270 261 251 244 237 249 250 246 244
62 124 94 104 92 74 110 124 135 139 131 126 145 147 147 154 157 141 69 56 151 164 159 150 148 138 136 146 150 172 182 176 183 190 176 169 184 181 170 187 145 130 170 199 186 173 181 211 198 165 213 239 224 213 222 227 229 231 224 203 187 184 189 201 209 212 217 222 232 245 253 258 263 277 333 304 272 237 238 244 242 245 234 223 235 241 240 242
8 38 47 95 94 43 114 121 114 134 137 115 145 135 131 152 159 138 113 42 42 104 148 149 142 120 110 169 197 194 180 174 176 174 164 158 156 143 145 163 153 146 163 167 125 158 177 202 210 184 214 239 222 208 213 222 234 237 224 207 202 203 207 211 211 208 208 208 216 230 237 247 257 264 269 268 263 249 241 240 235 236 234 229 232 234 236 241
Height
737 740 743 744 746 749 750 753 756 758 760 762 765 767 769 772 774 776 779 781 783 785 788 790 792 796 798 800 802 804 806 807 808 809 808 806 807 809 810 814 816 816 817 818 819 819 819 820 821 821 821 822 824 824 823 823 823 826 835 844 847 848 846 840 838 838 836 834 833 833 833 835 836 836 834 834 835 836 838 838 837 835 834 833 831 831 832 834
735 737 740 741 743 746 748 750 753 756 758 760 763 765 767 770 773 775 778 780 782 784 786 789 791 794 797 799 801 803 805 806 807 807 804 805 807 809 811 813 815 816 816 818 818 819 820 821 821 821 823 825 826 825 825 824 824 830 840 846 844 841 837 832 832 833 833 832 830 832 833 834 834 834 834 836 838 838 838 839 839 837 834 833 831 832 833 834
732 734 736 739 741 743 746 748 751 753 756 759 761 763 766 768 771 774 776 778 780 782 785 788 791 792 795 798 800 803 805 807 806 803 801 803 806 807 810 812 814 815 816 817 818 819 820 821 821 822 825 827 828 827 827 826 826 831 838 844 840 834 832 829 829 829 829 829 830 832 833 834 833 833 834 836 839 839 837 836 837 837 835 834 833 833 833 834
728 731 734 736 738 740 743 746 748 751 754 756 759 761 764 766 769 772 774 777 779 781 783 786 789 791 794 796 800 802 804 809 802 796 798 801 804 806 808 811 813 815 816 817 818 819 820 821 821 823 826 829 830 829 830 827 828 831 834 838 834 831 832 827 826 827 827 830 830 831 834 834 832 833 834 836 840 841 836 831 831 831 831 833 834 833 833 834
725 728 731 733 736 739 740 743 746 748 751 754 757 759 762 764 767 769 772 775 777 779 782 785 788 791 793 794 799 799 805 812 797 789 796 798 801 804 807 810 812 814 815 817 818 819 820 821 822 825 828 831 832 832 831 827 827 831 831 831 829 830 832 826 825 827 826 829 831 832 832 831 831 833 834 835 837 835 829 825 825 825 827 829 831 832 833 834
722 725 728 731 734 738 739 741 744 746 749 752 755 758 760 762 764 767 770 773 775 777 780 784 786 789 792 793 797 797 802 804 790 786 792 794 799 802 805 809 811 813 815 817 818 818 820 821 824 827 830 831 833 833 831 828 828 832 831 829 828 829 829 825 824 826 826 828 830 830 829 829 832 832 832 833 830 826 822 821 822 823 824 825 827 830 832 832
719 722 725 728 732 736 737 740 742 745 747 749 753 755 758 760 763 765 768 771 773 776 779 782 785 787 790 793 796 797 796 792 785 786 788 791 797 799 803 808 810 812 813 815 817 818 820 822 825 828 831 833 834 834 830 828 828 832 832 828 828 828 827 825 825 825 826 827 828 828 827 828 830 830 832 831 825 821 821 821 821 823 825 826 828 829 829 829
715 718 722 725 729 733 735 738 740 743 745 747 750 753 756 758 761 764 766 769 772 774 777 781 784 785 788 789 792 796 794 788 786 787 787 789 793 796 801 805 808 810 812 814 815 817 819 822 825 827 832 833 833 833 830 831 832 833 832 828 827 827 825 825 826 827 827 827 828 829 828 828 828 829 831 828 823 821 821 822 823 824 827 828 828 828 828 828
712 715 719 722 725 729 732 735 738 740 743 745 748 751 754 756 759 762 764 768 770 773 775 779 782 783 786 787 791 794 787 784 786 786 786 788 791 795 799 802 806 809 811 813 814 816 818 822 824 824 830 831 831 832 830 834 836 831 829 828 827 826 824 826 827 827 828 828 828 830 829 828 828 830 828 823 821 820 821 823 824 825 827 828 827 827 827 828
710 712 716 719 722 726 730 732 736 738 740 743 746 749 752 754 757 760 763 765 768 771 774 777 779 781 783 785 791 790 780 782 786 785 786 787 790 794 796 799 802 806 809 812 813 814 816 819 821 822 826 828 830 831 830 833 832 827 827 828 827 826 825 828 828 827 829 829 828 829 829 828 830 832 828 821 819 820 821 823 825 826 827 827 827 826 826 826
706 709 712 716 719 723 727 730 733 736 738 740 744 747 750 753 755 758 761 764 766 769 772 775 777 779 781 783 787 785 779 782 784 783 786 787 789 791 792 796 799 802 806 809 812 812 814 817 819 822 827 828 830 831 830 829 827 825 827 829 828 827 828 829 828 829 830 829 828 828 829 829 831 831 826 819 818 819 820 822 825 826 826 825 825 825 826 825
703 705 709 713 716 719 724 727 731 734 736 738 742 745 748 751 754 757 760 763 765 768 770 773 776 777 780 783 782 780 779 781 782 783 785 786 788 789 791 795 797 800 802 806 809 811 813 815 817 822 826 827 830 833 829 825 825 826 828 832 831 830 831 829 828 830 830 829 827 829 835 835 829 826 822 818 818 819 820 822 823 824 824 825 824 824 824 823
699 702 706 710 714 716 721 725 728 732 734 737 741 744 747 750 752 755 758 761 764 767 769 771 774 776 781 783 778 777 779 780 781 782 784 786 788 790 793 796 798 801 802 804 807 809 813 815 817 821 823 826 830 830 826 824 826 827 830 833 834 836 835 828 828 831 830 830 826 830 843 838 824 821 820 818 819 819 820 821 822 823 823 823 823 823 822 821
696 699 703 707 710 713 718 722 726 729 733 736 739 743 746 748 751 754 757 760 763 766 768 770 772 775 780 780 776 778 779 780 781 781 783 786 788 792 795 797 800 803 804 806 808 810 813 815 818 821 824 825 826 825 826 828 829 830 834 835 837 842 837 827 828 830 830 831 826 831 844 835 821 820 818 817 818 819 819 818 819 820 821 821 822 821 820 818
693 696 700 704 707 711 715 720 724 727 732 736 739 741 744 747 750 753 756 759 763 766 768 771 771 773 778 778 775 777 778 779 780 780 782 784 787 791 794 797 801 803 806 808 809 811 814 815 819 823 825 825 826 830 832 833 832 832 838 841 841 843 838 828 828 829 827 830 829 833 841 833 823 818 815 816 818 819 818 816 817 818 819 819 819 820 819 816
690 693 696 701 705 708 712 718 722 725 731 736 738 740 743 746 749 752 756 759 763 767 769 771 771 771 776 776 773 775 776 777 779 780 782 784 785 788 793 797 801 803 806 808 810 813 814 816 820 823 825 826 830 835 837 839 837 833 837 842 841 843 841 832 830 829 825 828 830 833 836 829 821 816 815 817 818 819 819 816 816 817 817 817 817 818 817 815
687 690 693 698 703 706 710 716 720 723 729 735 738 740 743 746 750 753 756 760 763 767 768 770 771 773 774 772 772 773 773 775 778 780 782 785 786 788 792 796 800 803 805 808 811 813 816 818 823 825 824 827 831 836 843 846 842 837 837 841 841 841 842 837 832 829 828 830 831 832 833 825 817 815 815 816 817 818 818 816 815 814 815 815 815 815 815 813
684 688 691 695 700 703 708 712 717 721 726 733 737 739 743 747 751 753 756 759 762 768 771 770 772 775 773 770 769 769 770 773 776 779 782 785 787 789 792 795 799 802 806 811 812 814 819 821 825 828 828 830 830 833 839 838 834 837 839 840 842 840 839 837 831 827 828 832 832 834 836 827 818 818 815 814 817 817 815 814 814 813 813 813 813 813 811 810
681 686 689 692 697 701 705 708 714 719 726 732 735 738 743 748 752 754 755 755 759 766 767 765 767 769 768 766 765 766 768 773 775 778 781 784 787 790 792 794 797 802 808 814 815 815 818 824 829 831 829 828 825 824 828 825 823 829 834 836 839 839 838 835 829 825 826 831 833 834 835 827 819 819 817 814 815 816 816 816 815 813 812 812 811 809 807 807
677 683 687 690 693 697 701 705 712 719 725 730 731 734 740 744 748 753 755 755 755 757 757 756 758 761 763 764 765 766 769 773 775 777 779 781 785 789 793 796 800 805 808 811 814 813 815 824 828 823 819 818 818 819 821 822 821 825 832 834 835 835 835 832 828 826 826 830 831 830 832 827 818 817 817 814 814 815 815 814 814 812 810 809 807 806 805 803
674 679 685 688 691 694 698 703 709 717 723 725 725 727 730 733 736 741 748 755 755 755 756 755 757 761 762 763 764 764 767 774 776 777 779 780 783 789 794 797 803 810 808 807 812 813 815 821 819 810 809 812 815 818 820 822 823 824 829 833 835 836 835 831 827 827 828 832 831 828 831 829 820 815 814 813 814 814 810 809 809 808 806 804 803 803 802 799
671 675 682 686 689 692 696 700 705 714 721 722 722 723 724 725 727 729 736 749 756 756 756 756 758 761 761 762 764 762 765 773 778 779 779 781 784 788 792 796 801 806 806 807 812 817 821 817 806 800 805 811 815 818 820 824 825 826 829 834 837 838 836 833 828 827 829 833 832 829 830 829 820 813 810 811 812 810 804 802 802 802 802 800 799 798 797 797
669 673 679 683 686 689 694 697 703 711 716 717 719 720 721 723 726 730 735 748 756 757 757 757 758 760 761 763 763 763 764 768 774 777 777 780 785 787 790 796 799 801 806 808 809 815 817 807 796 801 808 813 817 819 821 826 828 827 829 834 837 836 837 837 832 828 828 831 831 831 830 825 819 814 807 805 807 804 800 798 797 798 798 795 793 794 793 793
665 671 677 680 683 687 693 697 702 707 709 713 717 718 721 723 725 730 738 750 757 757 757 758 758 758 760 762 761 763 765 764 768 773 774 777 783 788 789 793 797 802 806 804 803 806 805 796 795 804 808 810 817 822 824 828 831 830 829 830 833 833 833 834 833 829 827 829 829 832 833 818 810 813 804 796 800 801 797 795 795 795 793 791 790 790 789 788
661 668 674 677 680 684 693 698 699 702 706 713 718 719 723 725 726 728 737 752 759 760 760 758 758 758 757 760 761 763 765 765 765 768 773 774 777 784 788 790 794 801 803 802 803 804 799 795 796 803 807 810 818 823 823 825 829 831 827 824 827 829 830 831 832 832 836 838 831 836 843 819 800 805 801 793 797 799 796 793 791 790 788 789 789 785 785 784
659 664 671 675 677 683 693 694 693 699 707 714 716 720 724 725 728 728 737 759 764 760 761 758 757 756 755 759 762 765 769 768 765 766 770 774 774 778 785 789 790 795 798 799 803 801 797 795 794 800 808 813 819 821 819 820 829 831 823 821 825 826 828 831 833 836 843 846 838 838 846 829 803 800 799 795 796 795 793 792 789 787 784 784 784 780 779 780
657 661 667 673 675 681 688 687 690 697 704 710 713 719 723 725 730 726 738 767 764 751 757 760 757 753 753 758 760 765 769 765 766 769 768 772 774 775 783 788 788 791 792 798 804 796 792 796 796 799 807 814 817 816 813 816 826 828 818 818 825 826 829 832 833 838 841 844 841 837 844 841 817 799 794 793 795 794 792 791 787 784 783 780 778 776 774 774
656 659 665 671 673 678 682 683 688 693 697 705 710 717 721 724 730 727 742 765 752 740 750 755 754 753 752 757 758 761 762 759 764 769 766 770 773 775 782 784 785 788 788 795 800 788 785 793 794 797 805 810 808 804 807 813 820 822 816 816 822 827 830 832 834 839 843 846 846 838 843 847 820 793 792 791 790 790 786 786 784 779 779 776 774 772 769 769
655 659 663 668 673 679 684 685 687 690 694 702 709 716 719 724 731 734 746 751 733 732 744 745 750 754 755 759 759 760 760 759 762 766 767 770 771 773 778 778 780 785 786 789 790 786 785 787 788 793 801 803 800 800 805 810 815 818 816 818 823 828 832 834 836 839 846 850 845 837 840 845 816 785 792 798 788 784 780 778 778 774 772 770 768 767 765 765
653 658 662 667 672 678 685 688 689 691 696 702 710 716 719 725 733 740 748 739 726 733 740 741 747 750 753 758 760 762 761 761 763 764 768 771 770 773 775 775 778 785 789 789 788 788 787 784 785 790 795 795 797 802 803 807 813 816 820 824 828 832 833 836 838 839 848 848 836 829 831 842 823 781 781 791 779 775 775 775 774 769 765 764 763 762 760 761
651 657 663 666 669 673 681 688 690 692 696 701 709 717 722 730 735 738 737 725 725 735 737 741 747 746 750 753 757 761 761 762 763 763 768 771 771 773 775 777 781 787 792 793 793 792 791 790 788 786 787 790 796 804 806 807 811 814 820 825 832 839 838 841 844 844 851 841 823 818 822 840 830 784 772 779 768 767 770 768 768 764 761 758 757 757 756 757
651 656 663 667 668 671 677 682 685 689 694 699 708 717 723 731 733 729 722 714 723 734 734 739 743 744 749 751 753 758 758 761 762 761 764 767 769 770 769 771 776 782 787 789 791 793 794 793 788 785 786 786 793 807 814 813 812 814 821 826 836 846 844 846 846 841 841 830 816 816 821 831 818 779 769 774 768 768 766 762 762 758 756 755 753 755 755 757
651 656 663 667 668 671 675 680 685 687 691 698 708 717 721 725 723 716 715 717 722 727 728 733 738 741 746 749 752 754 755 758 759 759 761 763 766 767 765 765 766 770 775 780 786 791 794 793 790 790 790 785 787 802 815 815 811 812 815 820 830 839 842 845 841 836 835 825 817 819 822 825 808 777 766 766 762 763 761 760 759 756 755 754 752 755 756 756
650 656 662 666 669 672 674 679 685 686 691 699 709 717 718 717 713 710 718 725 724 723 724 729 737 741 743 745 747 749 753 758 757 758 761 762 765 766 767 768 768 770 773 780 786 786 788 788 786 786 786 781 780 787 795 799 803 802 798 805 814 818 825 831 829 829 829 824 823 826 823 817 799 773 762 761 759 758 757 757 756 755 756 755 754 756 756 754
651 658 663 666 670 673 675 679 684 685 690 699 710 715 710 706 708 711 718 725 725 725 725 729 736 742 744 745 746 745 748 754 757 758 759 760 762 762 764 767 769 771 773 779 784 783 781 779 775 775 775 775 778 779 782 792 804 803 798 806 808 801 804 813 815 815 818 822 825 822 813 797 776 759 755 759 758 756 757 757 756 754 753 754 755 753 752 750
653 658 663 666 669 674 676 678 682 684 688 699 709 709 702 701 705 707 710 715 718 720 727 734 738 740 745 749 749 747 747 751 756 760 759 759 760 758 759 762 766 770 769 772 779 783 782 779 775 775 775 774 775 775 777 784 796 801 804 807 801 792 795 805 813 811 815 822 816 806 801 791 778 760 746 750 755 753 755 755 754 752 747 750 752 748 748 747
653 656 661 666 668 672 675 678 682 684 688 699 703 702 701 703 704 703 704 708 711 714 722 732 735 735 741 747 749 748 749 751 755 758 759 760 758 754 756 759 763 767 767 768 774 774 775 778 778 777 778 776 771 774 778 776 780 793 800 797 797 801 800 802 812 817 822 824 807 794 794 791 788 768 742 743 752 750 751 750 749 750 747 747 746 742 743 745
651 655 661 665 667 672 675 681 685 685 690 698 698 700 706 706 704 703 702 705 708 713 720 726 729 731 736 742 746 746 748 749 753 756 757 757 753 747 750 756 759 762 762 765 772 770 769 777 780 776 776 777 774 779 786 783 781 788 788 785 793 807 806 804 810 813 818 818 802 789 787 784 781 763 743 744 749 747 749 746 745 746 744 743 741 738 741 742
652 657 663 665 667 672 676 681 686 688 694 696 693 700 708 706 704 703 700 701 706 713 719 721 724 729 734 736 739 743 745 745 748 753 753 753 750 742 743 748 752 756 758 762 771 771 768 774 779 777 776 778 778 782 789 790 788 789 788 787 789 794 797 798 796 795 801 807 798 789 783 773 759 744 738 743 744 746 748 743 741 739 737 737 736 736 738 738
652 658 665 666 667 673 677 682 688 690 693 692 689 697 705 703 705 705 701 701 706 713 716 716 720 727 731 732 735 740 743 742 744 749 748 747 746 743 741 743 747 752 755 760 766 769 771 774 777 781 781 778 777 777 778 780 785 789 790 791 790 790 792 793 790 786 790 797 796 790 780 759 737 729 732 738 739 741 742 741 739 735 731 730 730 732 733 734
651 659 667 666 667 673 677 682 687 690 692 692 693 700 704 702 704 707 705 703 707 713 714 713 717 723 725 730 734 738 742 743 743 746 745 744 744 743 740 738 742 749 755 761 764 765 770 773 775 780 782 776 771 769 768 768 773 780 783 783 784 785 788 793 793 786 784 787 785 785 776 747 724 723 725 727 731 734 734 735 734 732 729 726 726 730 731 731
651 660 667 666 667 671 675 682 689 690 691 691 693 697 699 701 704 706 706 705 706 713 714 713 717 720 722 726 729 733 740 743 744 744 743 741 739 738 736 734 737 743 750 758 760 758 761 767 772 776 776 773 772 773 773 770 770 775 779 779 780 782 784 788 789 782 782 782 776 779 775 742 720 723 723 720 724 725 725 727 728 728 727 725 727 730 730 730
657 663 666 666 667 670 675 684 689 691 691 688 689 693 695 699 704 707 706 705 708 713 713 714 719 720 723 725 726 731 737 740 743 742 740 740 737 734 734 735 737 741 746 753 757 758 760 766 772 774 774 772 773 775 776 776 776 777 780 779 780 782 779 779 777 773 777 780 776 783 779 745 719 720 724 724 724 722 723 724 724 725 725 725 727 727 726 727
663 667 668 667 668 670 674 680 682 688 693 691 691 696 698 699 702 705 705 704 708 711 710 714 719 719 724 728 725 727 731 736 741 741 739 739 736 733 734 736 738 740 743 746 748 753 758 762 766 772 775 775 775 775 777 780 780 777 774 773 773 776 777 778 778 776 777 775 772 779 777 746 720 718 724 729 729 727 726 726 726 725 723 723 725 723 723 725
662 668 672 672 671 672 676 680 678 681 689 690 693 696 696 699 702 702 702 704 707 708 707 715 720 718 725 730 727 726 728 730 735 738 739 739 736 735 736 736 737 737 737 738 739 745 752 754 755 761 765 766 764 762 762 766 771 774 773 769 768 771 775 777 779 782 780 770 766 771 765 741 722 721 726 731 733 730 726 727 729 728 725 725 725 724 724 726
655 664 674 676 677 677 681 684 681 680 683 686 693 695 693 698 703 702 703 706 709 708 708 716 720 719 724 728 727 730 731 731 734 736 738 738 736 737 738 736 736 735 735 737 738 744 751 750 747 748 748 745 741 740 742 746 757 768 770 766 765 766 768 772 777 778 773 768 765 762 756 743 727 722 727 731 733 732 727 727 728 726 725 724 723 724 726 727
652 661 670 672 677 681 683 685 683 680 679 679 687 692 692 696 702 703 705 706 708 708 710 715 716 714 720 725 726 732 734 734 737 735 735 737 736 738 740 739 738 735 735 739 740 743 751 750 746 745 742 735 733 736 739 738 743 751 755 758 761 762 765 770 771 767 765 769 765 751 750 750 730 718 726 731 730 732 728 725 724 722 721 720 721 723 724 723
655 663 667 664 669 675 677 680 681 681 679 679 684 690 692 696 700 702 705 707 707 708 710 716 716 712 716 719 721 731 737 738 739 738 738 739 738 738 740 740 740 737 736 742 743 745 748 745 741 744 742 736 735 741 741 736 735 740 743 747 753 757 762 765 763 761 762 766 761 748 751 753 730 717 726 727 724 726 723 720 721 720 719 720 721 721 720 719
657 664 667 666 668 672 671 673 678 680 681 682 686 690 691 695 698 699 702 706 709 708 706 712 716 715 717 717 716 725 733 733 735 739 740 740 738 738 738 738 740 740 740 744 745 746 748 742 738 742 744 739 738 743 745 740 738 740 741 743 747 751 756 758 758 760 760 763 763 759 761 755 731 720 726 725 723 725 722 722 722 719 720 721 720 719 718 718
659 663 666 667 671 675 675 676 678 681 683 682 686 691 691 692 696 699 701 703 706 708 706 707 713 716 719 719 714 718 724 722 722 729 735 738 738 738 737 735 736 740 744 745 744 746 749 743 736 742 747 742 739 744 746 743 742 742 742 743 745 749 754 757 759 759 761 764 765 766 768 756 729 721 729 728 725 725 723 722 720 718 721 722 720 718 717 716
662 663 662 665 674 679 678 679 678 679 683 684 687 691 691 691 695 697 701 704 703 704 704 705 711 717 721 720 713 712 719 719 716 720 726 729 730 730 732 734 736 737 741 745 745 745 749 744 737 743 747 739 736 741 744 744 745 744 742 742 745 747 749 750 750 751 754 759 762 766 767 751 726 725 736 733 728 728 724 719 719 720 721 720 716 714 713 714
662 663 661 663 674 682 681 680 679 679 685 688 687 689 691 692 693 692 698 705 704 702 702 704 709 716 721 721 713 709 715 716 715 719 724 725 726 727 731 735 735 734 739 746 749 748 748 744 740 743 743 735 731 735 739 744 745 739 735 736 737 738 739 737 737 740 743 748 755 755 748 733 723 729 736 730 725 727 724 719 718 718 716 714 712 711 711 713